www.pogodaiklimat.ru
ПОГОДА в Минино

Архив погоды в Минино (Красноярский край, Россия)

Время
(UTC), дата
06 25.06
09 25.06
12 25.06
15 25.06
18 25.06
21 25.06
00 26.06
03 26.06
06 26.06
09 26.06
12 26.06
15 26.06
18 26.06
21 26.06
00 27.06
03 27.06
06 27.06
09 27.06
12 27.06
15 27.06
18 27.06
21 27.06
00 28.06
03 28.06
06 28.06
09 28.06
12 28.06
15 28.06
18 28.06
21 28.06
00 29.06
03 29.06
06 29.06
09 29.06
12 29.06
15 29.06
18 29.06
21 29.06
00 30.06
03 30.06
06 30.06
09 30.06
12 30.06
15 30.06
18 30.06
21 30.06
00 1.07
03 1.07
06 1.07
09 1.07
12 1.07
15 1.07
18 1.07
21 1.07
00 2.07
03 2.07
Ветер
(напр.,м/с)
Видим. Явления Облачность Т
(С)
Тd
(С)
f
(%)
Тe
(С)
Тes
(С)
Комфортность P
(гПа)
Po
(гПа)
Тmin
(С)
Tmax
(С)
R
(мм)
R24
(мм)
S
(см)
ЮЗ 4
{14}
50 км гроза без осадков {ливн. дождь} 8/5 600 м
[Cb cap Ci fib]
+23.4 +15.2 60 +28 +32 душно 1003.3 976.8
ЮЗ 4
{10}
50 км {гроза} 9/8 600 м
[Cb cap Ac trans Ci fib]
+25.2 +15.1 54 +28 +29 жарко 1002.4 976.0
ЮЗ 2 50 км {гроза} 9/6 600 м
[Cb cap Ac trans Ci fib]
+24.7 +15.7 57 +28 +28 душно 1002.6 976.2 +26.0
З 2 50 км {гроза} 9/5 600 м
[Cb cap Ac lent Ci fib]
+21.8 +16.0 70 +26 +26 душно 1002.7 976.1
ЮЗ 1 50 км {гроза, ливн. дождь} 9/3 600 м
[Cb cap Ci fib]
+18.9 +16.9 88 +21 +21 комфорт 1002.3 975.4
ЮЗ 3 50 км в посл. час ливневой дождь 9/5 600 м
[Cb cap Ac lent Ci fib]
+19.3 +16.3 83 +21 +21 комфорт 1001.7 974.7
ЮЗ 2 50 км {ливн. дождь} 9/3 600 м
[Cb cap Ac trans Ci fib]
+20.8 +16.7 77 +25 +26 комфорт 1001.8 975.1 +18.9 1
ЮЗ 3 50 км 9/3 600 м
[Cu med, cong Ci]
+25.8 +17.5 60 +30 +35 душно 1001.4 975.1
ЮЗ 4
{14}
50 км гроза без осадков 8/5 600 м
[Cb cap Ci fib]
+28.5 +17.7 52 +33 +36 очень
душно
1000.9 975.0
ЮЗ 2 50 км гроза без осадков 9/8 600 м
[Cb cap Ci fib]
+30.2 +15.7 42 +33 +35 душно 1000.0 974.2
В 1
{11}
50 км {гроза} 5/3 600 м
[Cu med, cong Ac trans Ci fib]
+26.1 +18.8 64 +31 +32 очень
душно
999.2 973.1 +30.9
ЮВ 1 20 км 8/0
[Ac trans Ci fib]
+24.3 +19.2 73 +29 +29 душно 997.9 971.6
Ю 1 20 км 4/3 600 м
[Cu med, cong Ac trans]
+21.5 +17.8 79 +26 +26 душно 996.1 969.6
З 1
{13}
20 км слаб. ливневой дождь, в посл. час гроза 9/8 600 м
[Cb cap Ac trans]
+19.7 +16.6 82 +23 +23 комфорт 996.3 969.6
ЮЗ 3 50 км {гроза, ливн. дождь} 9/0
[Ci fib]
+22.4 +16.3 68 +27 +29 душно 997.3 970.9 +18.6 2
ЮЗ 5 50 км 9/3 600 м
[Cu med, cong Ac lent Ci sp]
+27.1 +17.2 55 +31 +33 душно 997.9 971.8
З 4
{12}
50 км 9/4 600 м
[Cb cap Ci fib]
+30.1 +16.0 43 +33 +38 душно 997.8 972.0
С 2 20 км гроза, ливневой дождь 9/8 600 м
[Cb cap Ci fib]
+24.7 +18.2 67 +29 +31 душно 997.6 971.4
В 2
{18}
50 км в посл. час гроза {ливн. дождь} [макс. диам. градин 15 мм] 9/5 600 м
[Cb cap Ci fib]
+19.0 +18.5 97 +21 +22 комфорт 998.8 972.0 +31.1 25
штиль 0 20 км 9/3 600 м
[Cb cap Ac lent Ci fib]
+18.5 +17.5 94 +19 +19 997.5 970.8
В 1 н/о н/о +17.7 +17.3 98 +19 +19 994.5 967.7
ЮЗ 3 20 км гроза, ливневой дождь 10/10 600 м
[Cb cap]
+20.0 +17.7 87 +23 +23 комфорт 993.3 966.7
ЮЗ 3 20 км в посл. час ливневой дождь {гроза} 10/10 600 м
[Cb cap]
+19.2 +17.1 88 +21 +21 комфорт 995.4 968.7 +17.0 2
З 5-11
{12}
н/о н/о +18.7 +13.6 72 +19 +19 1000.1 973.2
З 6-11
{13}
50 км {ливн. дождь} 8/4 600 м
[Cb cap Ac trans]
+20.6 +11.3 55 +22 +24 комфорт 1002.9 976.1
З 6-10
{14}
50 км 6/6 600 м
[Cu med, cong]
+21.2 +10.4 50 +23 +24 комфорт 1004.8 978.0
З 5
{13}
50 км 4/4 600 м
[Cu med, cong]
+20.9 +10.2 50 +23 +23 комфорт 1006.7 979.8 +22.5 0.0
З 1 50 км 5/3 600 м
[Cu hum Ac lent]
+16.4 +7.9 57 +17 +17 1007.9 980.5
З 1 н/о н/о +11.3 +9.9 91 +11 +11 1009.1 981.3
штиль 0 20 км 5/0
[Ac lent]
+9.8 +9.2 96 +9 +9 1009.0 981.0
В 1 20 км 9/0
[Ci fib]
+14.7 +10.9 78 +15 +18 1008.8 981.3 +9.8
В 3 50 км 9/4 600 м
[Cu med, cong Ci fib]
+21.0 +10.8 52 +23 +28 комфорт 1006.9 980.0
В 3 н/о н/о +24.2 +12.1 47 +26 +26 жарко 1004.6 978.0
В 1 50 км {гроза} 6/6 600 м
[Cu med, cong]
+25.4 +11.5 42 +27 +31 жарко 1002.6 976.2
ЮВ 2 50 км {гроза} 6/6 600 м
[Cu med, cong Ac trans]
+25.7 +12.4 44 +27 +28 жарко 1001.8 975.4 +26.6
ЮВ 1 20 км 3/0
[Ac lent]
+21.3 +14.1 63 +24 +24 комфорт 1000.9 974.3
штиль 0 20 км ясно +14.1 +12.6 91 +14 +14 1000.9 973.6
штиль 0 20 км 3/0
[Ac trans]
+12.5 +11.6 94 +12 +12 999.5 972.0
штиль 0 20 км 9/0
[Ci sp]
+16.5 +13.1 80 +16 +19 998.0 971.0 +12.4
штиль 0 20 км 9/3 600 м
[Cu hum Ac cast Ci sp]
+21.8 +15.0 65 +25 +25 комфорт 996.3 969.8
ЮЗ 3 20 км 9/3 600 м
[Cb cap Ac trans Ci ing]
+28.0 +15.1 45 +31 +36 душно 996.1 970.2
З 3 20 км гроза без осадков {ливн. дождь} 10/10 600 м
[Cb cap]
+25.7 +15.3 53 +29 +29 душно 999.3 973.1
ЮЗ 2
{12}
20 км {гроза, ливн. дождь} 10/8 600 м
[Cb cap As trans]
+24.4 +14.3 53 +27 +27 жарко 999.8 973.4 +29.2 0.0
СВ 2 50 км в посл. час ливневой дождь 9/3 600 м
[Cb cap Ac lent Ci fib]
+20.2 +16.2 78 +24 +24 комфорт 1000.4 973.7
З 1 50 км {ливн. дождь} 10/3 600 м
[Cb cap Ac lent]
+18.2 +14.8 81 +20 +20 1001.9 974.9
З 2 50 км в посл. час ливневой дождь 10/4 600 м
[Cb cap Ac lent]
+16.7 +11.8 73 +17 +17 1002.0 974.8
СЗ 1 20 км в посл. час ливневой дождь 10/10 600 м
[Cb cap]
+16.4 +12.2 76 +17 +17 1002.0 974.8 +16.2 0.6
СЗ 1 20 км слаб. дождь 10/0
[Ac As]
+16.2 +12.8 80 +17 +21 1002.6 975.4
Ю 1 20 км {дождь} 10/3 600 м
[Cb cap As trans]
+18.9 +12.5 66 +21 +26 комфорт 1002.3 975.4
СВ 1 20 км 8/8 600 м
[Cb cap]
+20.8 +14.1 65 +25 +27 комфорт 1001.9 975.2
Ю 2 50 км 9/5 600 м
[Cb cap Ci fib]
+21.5 +13.0 58 +24 +25 комфорт 1002.0 975.3 +22.2 0.0
ЮЗ 1 50 км 9/8 600 м
[Cb cap Ci fib]
+19.3 +13.1 67 +22 +22 комфорт 1002.7 975.8
З 2 20 км 9/8 600 м
[Cb cap Ci fib]
+16.2 +9.7 65 +16 +16 1003.3 976.1
Ю 1 20 км в посл. час ливневой дождь 10/10 600 м
[Cb cap]
+14.6 +11.4 81 +15 +15 1003.7 976.3
штиль 0 20 км в посл. час ливневой дождь 10/6 600 м
[Cb cap Ac As]
+14.8 +12.2 84 +15 +15 1003.4 976.0 +14.1 0.0
Ю 1 20 км 10/8 600 м
[Cb cap Ac As]
+17.9 +11.1 64 +19 +20 1002.6 975.5
Местоположение метеостанции Минино (Красноярский край, Россия): широта 56.07 долгота 92.73 высота над уровнем моря 235 м.
В архиве по умолчанию представлена погода в Минино за последнюю неделю. Архивные данные за месяц целиком и за предыдущие месяцы, начиная с января 2011 года, Вы можете получить, выбрав интересующий диапазон дат из раскрывающегося списка и нажав кнопку "Найти!".
*Определитесь, кто Вы:
Внимание! Время в таблицах - всемирное. Для получения местного времени необходимо прибавить поправку, которая равна 7 ч.
Смотрите также архив погоды в соседних городах и на ближайших метеорологических станциях:
Партнеры нашего сайта:      
Пояснения к столбцам:
  • Ветер - указаны скорость ветра в м/с - средняя за 10 мин, порывы в срок и между сроками (в фигурных скобках) и направление, откуда дует ветер: С - северный,
  • СВ - северо-восточный, В - восточный, ЮВ - юго-восточный, Ю - южный, ЮЗ - юго-западный, З - западный, СЗ - северо-западный.
  • Видимость - горизонтальная дальность видимости в метрах или километрах. При видимости от 1 до 10 км при отсутствии осадков обычно наблюдается дымка, при ухудшении видимости до 1 км и менее - туман. В сухую погоду видимость может ухудшаться дымом, пылью или мглою.
  • Явления - указаны атмосферные явления, наблюдавшиеся в срок или в последний час перед сроком; фигурными скобками обозначены явления, наблюдавшиеся между сроками (за 1-3 часа до срока); квадратными скобками обозначены град или гололедные отложения с указанием их диаметра в мм.
  • Облачность - указаны через наклонную черту общая и нижняя облачность в баллах и высота нижней границы облаков в метрах; квадратными скобками обозначены формы облаков: Ci - перистые, Cs - перисто-слоистые, Cc - перисто-кучевые, Ac - высококучевые, As - высокослоистые, Sc - слоисто-кучевые, Ns - слоисто-дождевые, Cu - кучевые, Cb - кучево-дождевые. Подробнее классификацию облаков см. в Атласе облаков (PDF).
  • T - Температура воздуха - температура, измеренная на высоте 2 м над землей.
  • Td - Температура точки росы - температура, при понижении до которой содержащийся в воздухе водяной пар достигнет насыщения.
  • f - Относительная влажность воздуха - влажноcть воздуха, измеренная на высоте 2 м над землей.
  • Te - Эффективная температура - температура, которую ощущает одетый по сезону человек в тени. Характеристика душности погоды. При расчете учитывается влияние влажности воздуха и скорости ветра на теплоощущения человека.
  • Tes - Эффективная температура на солнце - температура, которую ощущает человек, с поправкой на солнечный нагрев. Характеристика знойности погоды. Зависит от высоты солнца над горизонтом, облачности и скорости ветра. Ночью, в пасмурную погоду, а также при ветре 12 м/с и более поправка равна нулю.
  • P - Атмосферное давление - приведенное к уровню моря атмосферное давление.
  • Po - Атмосферное давление - измеренное на уровне метеостанции атмосферное давление.
  • Tmin - Минимальная температура - минимум температуры воздуха на высоте 2 м над землей.
  • Tmax - Максимальная температура - максимум температуры воздуха на высоте 2 м над землей.
  • R - Количество осадков - Количество выпавших осадков за период времени, мм. При наведении курсора мыши на число - период времени, за который выпало указанное количество осадков.
  • R24 - Количество осадков - Количество выпавших осадков за 24 часа, мм.
  • S - Снежный покров - Высота снежного покрова, см. При наведении курсора мыши на число - состояние снежного покрова и степень покрытия местности в баллах.